Location: Bukit Nyuki
(2.5885°N, 113.7476°E)
Time: 05:13:11
(UTC+00:00)

CZ-4C R/B - Pass Details

Date: 18 May 2021
Orbit: 407 x 484 km, 97.7° (Epoch: 22 June)

Event Time Altitude Azimuth Distance (km) Brightness Sun altitude
Rises 21:47:53 0° 178° (S) 2,412 6.4 -7.0°
Reaches altitude 10° 21:49:58 10° 183° (S) 1,529 5.4 -6.5°
Maximum altitude 21:53:07 47° 259° (WSW) 569 3.0 -5.8°
Drops below altitude 10° 21:56:12 10° 334° (NNW) 1,488 5.5 -5.1°
Sets 21:58:12 0° 340° (NNW) 2,338 6.5 -4.6°
